Location: Austin
(30.3000°N, 97.7500°W)
Time: 06:38:35
(UTC-05:00)

Envisat - Pass Details

Date: 16 June 2025
Orbit: 761 x 763 km, 98.3° (Epoch: 08 July)

Event Time Altitude Azimuth Distance (km) Brightness Sun altitude
Rises 04:03:37 0° 15° (NNE) 3,225 7.3 -25.1°
Reaches altitude 10° 04:05:56 10° 18° (NNE) 2,296 6.4 -24.8°
Maximum altitude 04:10:58 67° 102° (ESE) 822 3.1 -24.1°
Enters shadow 04:12:11 49° 162° (SSE) 973 3.3 -24.0°
